www.pogodaiklimat.ru

Погода и климат >> Архив погоды >> Узбекистан >> Жаслык


ПОГОДА в Жаслыке

  • Прогноз погоды в Жаслыке
  • Монитор погоды в Жаслыке
  • Климат города

АРХИВ ПОГОДЫ в Жаслыке

Время (UTC), дата Ветер
(напр.,м/с)
 
Видим.   Явления Облачность Т
(С)
Тd
(С)
f
(%)
Тe
(С)
Тes
(С)
Комфортность P
(гПа)
Po
(гПа)
Тmin
(С)
Tmax
(С)
R
(мм)
R24
(мм)
S
(см)
09 18.04 ЮВ 13 20 км 4/0
[Ci sp]
+22.2 +4.3 31 +22 +22 комфорт 1019.9 1004.9
12 18.04 В 4 20 км 6/0
[Ci sp]
+23.7 -2.1 18 +22 +26 комфорт 1017.8 1002.4
15 18.04 В 4 20 км 6/0
[Ci sp]
+23.7 -2.1 18 +22 +22 комфорт 1017.8 1002.4
18 18.04 В 4 20 км ясно +14.3 -2.6 31 +13 +13 1017.7 1002.3 +24.2
21 18.04 В 4 20 км ясно +11.5 0.0 45 +10 +10 1016.7 1001.3
00 19.04 В 3 20 км ясно +9.2 +0.3 54 +7 +7 1016.1 1000.7
03 19.04 В 4 20 км ясно +11.4 +0.4 47 +10 +11 1015.8 1000.3
06 19.04 В 6 20 км 1/0
[Ci fib]
+22.5 -0.0 22 +22 +26 комфорт 1015.1 999.6 +8.8
09 19.04 В 5 20 км 8/0
[Ci sp]
+24.2 -1.2 19 +23 +30 комфорт 1013.9 998.5
12 19.04 В 5 20 км 6/0
[Ci fib]
+25.0 -2.9 16 +23 +26 комфорт 1012.0 996.5
15 19.04 СВ 4 20 км 10/0
[Ci sp]
+21.4 -1.2 22 +21 +21 комфорт 1011.5 996.1 +25.7
18 19.04 СВ 4 20 км 3/0
[Ci sp]
+16.1 +0.6 35 +16 +16 1011.2 995.8 +27.5
21 19.04 В 5 20 км 10/10 600 м
[Cb cap]
+16.1 +0.6 35 +15 +15 1009.9 994.4
00 20.04 ЮВ 3 20 км 10/10 600 м
[Cb cap]
+15.1 +2.0 41 +15 +15 1008.7 993.3
03 20.04 ЮВ 1 20 км слабый ливневой дождь 10/10 600 м
[Cb cap]
+14.2 +4.9 54 +15 +15 1008.1 992.7
06 20.04 З 3 10 км слабый ливневой дождь 10/10 600 м
[]
+16.3 +11.2 72 +16 +16 1008.1 992.7 +13.4 0.0
09 20.04 С 3 10 км слабый ливневой дождь 10/10 600 м
[Cb cap]
+15.3 +12.6 84 +15 +15 1008.8 993.4
12 20.04 СЗ 13
{18}
20 км слабый ливневой дождь 10/10 600 м
[Cb cap]
+16.5 +9.7 64 +14 +14 1009.0 993.6
15 20.04 З 15 20 км в посл. час ливневой дождь 10// 600 м
[]
+14.4 +9.1 70 +11 +11 1010.5 995.0 +16.5
18 20.04 З 13
{18}
20 км 10/10 600 м
[Cb cap]
+11.5 +6.6 72 +7 +7 1012.2 996.8 +16.5 5
21 20.04 З 15 20 км 5/5 600 м
[Cb cap]
+10.5 +5.8 73 +5 +5 1012.5 997.0
00 21.04 СЗ 15 20 км 3/3 600 м
[Cb cap]
+9.3 +5.7 78 +4 +4 1012.4 996.9
03 21.04 СЗ 15 20 км ясно +8.7 +5.0 78 +3 +3 1014.2 998.5
06 21.04 СЗ 17
{22}
20 км ясно +13.5 +5.5 58 +10 +10 1014.8 999.4 +8.1
09 21.04 СЗ 15
{20}
20 км ясно +17.5 +1.7 35 +16 +16 1015.1 1000.0
12 21.04 С 12
{18}
20 км ясно +19.8 -7.8 15 +18 +18 1015.3 1000.3
15 21.04 СЗ 3 20 км ясно +18.1 -8.0 16 +18 +18 1016.1 1000.7 +20.5
18 21.04 СЗ 3 20 км ясно +12.7 -5.7 27 +12 +12 1017.6 1002.1 +20.5
21 21.04 С 1 20 км ясно +7.7 -4.1 43 +8 +8 1018.3 1002.6
00 22.04 В 3 20 км ясно +4.2 -0.8 70 +1 +1 1019.3 1003.3
03 22.04 В 4 20 км ясно +7.6 -0.5 56 +5 +6 1018.7 1003.2
06 22.04 ЮВ 13 20 км 6/0
[Ci sp]
+17.7 -1.8 26 +16 +16 1017.8 1002.4 +4.0
09 22.04 Ю 15 20 км 6/0
[Ac trans Ci sp]
+20.6 +0.6 26 +20 +20 1015.7 1000.3
12 22.04 Ю 15 20 км 10/8 600 м
[Cb cap Ac trans]
+21.6 +2.4 28 +21 +21 комфорт 1013.0 997.5
15 22.04 24 20 км н/о +21.5 -0.4 23 +21 +21 комфорт 1012.3 996.8 +21.9
18 22.04 СЗ 25 20 км 6/3 600 м
[Cb cap Ac trans]
+13.3 +5.7 60 +9 +9 1015.8 1000.3 +21.9
21 22.04 З 2 20 км ясно +9.4 +3.0 64 +8 +8 1015.0 1002.0
00 23.04 СЗ 2 20 км ясно +6.3 +1.7 72 +4 +4 1020.3 1003.8
03 23.04 З 1 20 км ясно +7.0 +1.3 67 +6 +9 1022.4 1006.9
06 23.04 СЗ 1 20 км 3/0
[Ci fib]
+13.0 +0.7 43 +13 +27 опасность
простуды
1023.0 1007.6 +4.9
09 23.04 Ю 1 20 км 5/0
[Ci sp]
+17.1 -0.4 30 +18 +35 опасность
простуды
1022.6 1007.1
12 23.04 ЮВ 2 20 км 8/0
[Ci sp]
+18.7 -1.8 25 +19 +25 1020.4 1004.9
15 23.04 ЮВ 3 20 км 8/0
[Ci sp]
+18.1 -2.0 25 +18 +18 1017.9 1002.5 +19.6
18 23.04 В 6 20 км 3/0
[Ci sp]
+13.6 +3.2 49 +12 +12 1016.6 1001.1 +19.6
21 23.04 ЮВ 15 20 км ясно +12.0 +2.5 52 +8 +8 1014.9 999.4
00 24.04 В 15 20 км 3/0
[Ac trans]
+12.0 +2.3 51 +8 +8 1012.5 997.1
03 24.04 В 15 20 км 4/0
[Ci sp]
+13.4 +3.0 49 +10 +10 1010.2 994.8
06 24.04 ЮВ 20
{25}
20 км 8/0
[Ci sp]
+25.5 +1.5 21 +24 +24 комфорт 1008.5 993.1 +11.4
09 24.04 Ю 22
{27}
20 км 10/10 600 м
[Cb cap]
+29.9 +0.4 15 +27 +27 жарко 1007.1 991.7
12 24.04 ЮЗ 20
{25}
20 км 10/10 600 м
[Cb cap]
+31.4 +0.1 13 +28 +28 жарко 1005.6 990.2
15 24.04 Ю 13 20 км 10/0
[Ci sp]
+28.8 +2.3 18 +27 +27 жарко 1006.0 990.6 +32.2
18 24.04 СЗ 13
{20}
20 км 4/0
[Ac trans]
+16.8 +8.4 58 +15 +15 1009.1 993.7 +32.2
21 24.04 СЗ 12 20 км 3/0
[Ac trans]
+13.8 +7.4 65 +11 +11 1011.4 996.0
00 25.04 н/о н/о +10.3 +4.2 66 1013.2 997.8
03 25.04 С 15 20 км 10/5 600 м
[Cb cap Ci sp]
+10.6 +5.1 69 +6 +6 1015.0 999.5

 

Местоположение метеостанции Жаслык (Каракалпакстан, Узбекистан): широта 43.88 долгота 57.52 высота над уровнем моря 128 м.

В архиве по умолчанию представлена погода в Жаслыке за последнюю неделю. Архивные данные за месяц целиком и за предыдущие месяцы, начиная с января 2011 года, Вы можете получить, выбрав интересующий диапазон дат из раскрывающегося списка и нажав кнопку "Ввод!".

Внимание! Время в таблицах - всемирное. Для получения местного времени необходимо прибавить поправку, которая в Жаслыке равна 5 ч.

Смотрите также архив погоды в соседних городах и на ближайших метеорологических станциях:

Погода в Муйнаке (Каракалпакстан, Узбекистан) (98 км)
Погода в Каракалпакии (Каракалпакстан, Узбекистан) (144 км)
Погода в Кунграде (Каракалпакстан, Узбекистан) (144 км)
Погода в Саме (Мангистауская область, Казахстан) (202 км)
Погода в Чимбае (Каракалпакстан, Узбекистан) (213 км)
Погода в Кенеургенче (Дашогузский велаят, Туркменистан) (219 км)
Погода в Тахтакупыре (Каракалпакстан, Узбекистан) (231 км)
Погода в Нукусе (Каракалпакстан, Узбекистан) (233 км)
Погода в Бейнеу (Мангистауская область, Казахстан) (244 км)
Погода в Шах-Сенеме (Дашогузский велаят, Туркменистан) (274 км)

Пояснения к столбцам:

Ветер - указаны скорость ветра в м/с - средняя за 10 мин, порывы в срок и между сроками (в фигурных скобках) и направление, откуда дует ветер: С - северный, СВ - северо-восточный, В - восточный, ЮВ - юго-восточный, Ю - южный, ЮЗ - юго-западный, З - западный, СЗ - северо-западный.
Видимость - горизонтальная дальность видимости в метрах или километрах. При видимости от 1 до 10 км при отсутствии осадков обычно наблюдается дымка, при ухудшении видимости до 1 км и менее - туман. В сухую погоду видимость может ухудшаться дымом, пылью или мглою.
Явления - указаны атмосферные явления, наблюдавшиеся в срок или в последний час перед сроком; фигурными скобками обозначены явления, наблюдавшиеся между сроками (за 1-3 часа до срока); квадратными скобками обозначены град или гололедные отложения с указанием их диаметра в мм.
Облачность - указаны через наклонную черту общая и нижняя облачность в баллах и высота нижней границы облаков в метрах; квадратными скобками обозначены формы облаков: Ci - перистые, Cs - перисто-слоистые, Cc - перисто-кучевые, Ac - высококучевые, As - высокослоистые, Sc - слоисто-кучевые, Ns - слоисто-дождевые, Cu - кучевые, Cb - кучево-дождевые. Подробнее классификацию облаков см. в Атласе облаков (PDF).
T - Температура воздуха - температура, измеренная на высоте 2 м над землей.
Td - Температура точки росы - температура, при понижении до которой содержащийся в воздухе водяной пар достигнет насыщения.
f - Относительная влажность воздуха - влажноcть воздуха, измеренная на высоте 2 м над землей.
Te - Эффективная температура - температура, которую ощущает одетый по сезону человек в тени. Характеристика душности погоды. При расчете учитывается влияние влажности воздуха и скорости ветра на теплоощущения человека.
Tes - Эффективная температура на солнце - температура, которую ощущает человек, с поправкой на солнечный нагрев. Характеристика знойности погоды. Зависит от высоты солнца над горизонтом, облачности и скорости ветра. Ночью, в пасмурную погоду, а также при ветре 12 м/с и более поправка равна нулю.
P - Атмосферное давление - приведенное к уровню моря атмосферное давление.
Po - Атмосферное давление - измеренное на уровне метеостанции атмосферное давление.
Tmin - Минимальная температура - минимум температуры воздуха на высоте 2 м над землей.
Tmax - Максимальная температура - максимум температуры воздуха на высоте 2 м над землей.
R - Количество осадков - Количество выпавших осадков за период времени, мм. При наведении курсора мыши на число - период времени, за который выпало указанное количество осадков.
R24 - Количество осадков - Количество выпавших осадков за 24 часа, мм.
S - Снежный покров - Высота снежного покрова, см. При наведении курсора мыши на число - состояние снежного покрова и степень покрытия местности в баллах.